Location: Naloco
(16.5478°S, 37.1017°E)
Time: 02:55:58
(UTC+00:00)

Hubble Space Telescope - Pass Details

Date: 13 August 2020
Orbit: 536 x 540 km, 28.5° (Epoch: 23 September)

Event Time Altitude Azimuth Distance (km) Brightness Sun altitude
Rises 17:22:37 0° 242° (WSW) 2,683 5.1 -29.1°
Reaches altitude 10° 17:24:54 10° 239° (WSW) 1,790 4.0 -29.6°
Enters shadow 17:26:22 21° 234° (SW) 1,239 3.0 -30.0°
